Regional Weather Roundup
Issued by NWS

Home | Current Version | Previous Version | Text Only | Print | Product List | Glossary Off
Versions: 1 2 3 4 5 6 7 8 9 10 11 12 13 14 15 16 17 18 19 20 21 22 23 24 25 26 27 28 29 30 31 32 33 34 35 36 37 38 39 40 41 42 43 44 45 46 47 48 49 50

000
ASUS45 KABQ 070001
RWRNM
NEW MEXICO REGIONAL WEATHER ROUNDUP
NATIONAL WEATHER SERVICE ALBUQUERQUE NM
500 PM MST SAT FEB 06 2016

NOTE: "FAIR" MEANS FEW OR NO CLOUDS BELOW 12,000 FEET AGL WITH NO
       SIGNIFICANT WEATHER OR OBSTRUCTIONS TO VISION.

      THIS PRODUCT IS RELEASED AS TWO VERSIONS.  ONE VERSION NEAR
      THE TOP OF THE HOUR CONTAINING PRELIMINARY DATA FROM ALBUQUERQUE
      AND OTHER STATIONS.  A FINAL VERSION WITH ADDITIONAL DATA IS
      ISSUED ABOUT 10 MINUTES AFTER THE HOUR.

NMZ501-503-504-510>518-070100-
NORTHWEST PLATEAU/NORTHCENTRAL MOUNTAINS

CITY           SKY/WX    TMP DP  RH WIND       PRES   REMARKS
FARMINGTON     CLEAR     39  16  39 W12       30.37F WCI  32
6HR MIN TEMP:  27; 6HR MAX TEMP:  40;

SANTA FE       CLEAR     44  11  26 N6        30.30S
6HR MIN TEMP:  33; 6HR MAX TEMP:  45;

TAOS             N/A    N/A N/A N/A MISG        N/A

$$
NMZ402-403-502-505>509-070100-
WESTCENTRAL MOUNTAINS/SOUTHWEST MOUNTAINS

CITY           SKY/WX    TMP DP  RH WIND       PRES   REMARKS
GALLUP         CLEAR     46  14  27 NW5       30.38R
6HR MIN TEMP:  32; 6HR MAX TEMP:  47;

SILVER CITY      N/A     50   0  12 S6        30.35S

$$
NMZ407-409-411-412-070100-
SOUTHERN DESERTS

CITY           SKY/WX    TMP DP  RH WIND       PRES   REMARKS
DEMING         CLEAR     54   4  13 S3        30.32F
6HR MIN TEMP:  46; 6HR MAX TEMP:  55;

HOLLOMAN AFB   CLEAR     55   3  12 NW2       30.30F
ALAMOGORDO     CLEAR     55   1  11 W8        30.31F
T OR C         CLEAR     53   1  12 S3        30.31F
6HR MIN TEMP:  41; 6HR MAX TEMP:  53;


$$
NMZ519>523-070100-
CENTRAL VALLEYS/CENTRAL HIGHLANDS

CITY           SKY/WX    TMP DP  RH WIND       PRES   REMARKS
ALBUQUERQUE    CLEAR     49   8  19 SW5       30.33S
6HR MIN TEMP:  39; 6HR MAX TEMP:  50;

DOUBLE EAGLE   CLEAR     46  10  23 NW9       30.34
CLINES CORNERS CLEAR     37  16  42 NW21      30.26R WCI  26
6HR MIN TEMP:  30; 6HR MAX TEMP:  39;

BELEN          FAIR      49   4  16 CALM      30.33S
6HR MIN TEMP:  38; 6HR MAX TEMP:  50;

SOCORRO        NOT AVBL

$$
NMZ524>526-539-540-070100-
SOUTHCENTRAL MOUNTAINS

CITY           SKY/WX    TMP DP  RH WIND       PRES   REMARKS
RUIDOSO          N/A     46   1  15 NW14      30.31F

$$
NMZ527>531-070100-
NORTHEAST HIGHLANDS/NORTHEAST PLAINS

CITY           SKY/WX    TMP DP  RH WIND       PRES   REMARKS
LAS VEGAS      CLEAR     47  18  31 S7        30.19S
6HR MIN TEMP:  40; 6HR MAX TEMP:  51;

RATON          CLEAR     51  12  21 NW5       30.17R
6HR MIN TEMP:  39; 6HR MAX TEMP:  53;

CLAYTON        CLEAR     48   6  18 S13       30.16F
6HR MIN TEMP:  48; 6HR MAX TEMP:  56;


$$
NMZ532>537-070100-
EASTCENTRAL PLAINS

CITY           SKY/WX    TMP DP  RH WIND       PRES   REMARKS
TUCUMCARI      CLEAR     56   8  14 SW6       30.15F
6HR MIN TEMP:  44; 6HR MAX TEMP:  60;

CANNON AFB     NOT AVBL
CLOVIS AIRPORT CLEAR     54  10  17 S12       30.20F

$$
NMZ028-029-538-070100-
SOUTHEAST PLAINS

CITY           SKY/WX    TMP DP  RH WIND       PRES   REMARKS
ROSWELL        CLEAR     59   4  11 S10       30.21F
6HR MIN TEMP:  46; 6HR MAX TEMP:  61;

ARTESIA        CLEAR     59   9  13 S13G20    30.23S
CARLSBAD       CLEAR     60   3  10 S8        30.23F
6HR MIN TEMP:  47; 6HR MAX TEMP:  63;

HOBBS          CLEAR     57   0   9 S8        30.26F


$$



USA.gov is the U.S. government's official web portal to all federal, state and local government web resources and services.